[[{"header":{"parameterUnit":"m.s-1","parameterCategory":1,"la1":30.2991,"la2":30.254,"lo1":-89.0895,"lo2":-89.0444,"dy":0.0017,"dx":0.0017,"nx":28,"ny":28,"refTime":"2023-09-28T21:00:00:Z","depth":0,"parameterNumber":2,"parameterNumberName":"U-component_of_WINDS"},"data":[0,0,0,0,0,0,0,0,0,0,0,0,0,0,0,0,0,0,0,0,0,0,0,0,0,0,0,0,0,0,0,0,0,0,0,0,0,0,0,0,0,0,0,0,0,0,0,0,0,0,0,0,0,0,0,0,0,0,-5.6951,-5.6951,0,-5.6963,-5.6963,-5.6963,-5.6822,-5.6818,-5.6814,-5.681,-5.682,-5.6824,-5.6828,0,0,0,0,0,0,0,0,0,0,0,0,0,-5.6803,-5.6806,-5.6951,-5.6951,-5.6951,-5.6963,-5.6963,-5.6963,-5.6822,-5.6818,-5.6813,-5.6809,-5.6819,-5.6824,-5.6828,0,0,0,0,0,0,0,0,0,0,0,0,0,-5.6846,-5.6808,-5.6951,-5.6882,-5.6876,-5.6963,-5.6963,-5.6963,-5.6823,-5.6818,-5.6812,-5.6806,-5.6818,-5.6823,-5.6829,-5.6981,0,0,-5.6847,-5.6849,0,0,0,0,0,0,0,0,-5.6844,-5.6852,-5.6892,-5.6887,-5.6881,-5.6885,-5.6914,-5.6969,-5.6825,-5.6843,-5.681,-5.6804,-5.6846,-5.6849,-5.6864,-5.6981,-5.6982,-5.6847,-5.6851,-5.6853,-5.6855,0,0,0,0,0,0,0,-5.6841,-5.6851,-5.6955,-5.6893,-5.6886,-5.685,-5.685,-5.6924,-5.6877,-5.6841,-5.6831,-5.6835,-5.6842,-5.6859,-5.6864,-5.6982,-5.6847,-5.6852,-5.6856,-5.6858,-5.7222,-5.7228,0,0,0,0,0,0,-5.6848,-5.6849,-5.6955,-5.6955,-5.6848,-5.6857,-5.6857,-5.6889,-5.6876,-5.6868,-5.684,-5.6828,-5.6852,-5.6857,-5.6863,-5.7039,-5.6853,-5.6859,-5.6862,-5.7216,-5.7224,-5.723,0,0,0,0,0,0,-5.6845,-5.6859,-5.6954,-5.69,-5.6909,-5.6866,-5.6903,-5.6893,-5.6909,-5.6875,-5.6865,-5.6866,-5.6848,-5.6855,-5.6952,-5.7037,-5.6861,-5.6867,-5.7209,-5.7218,-5.7227,-5.7392,0,0,0,0,0,0,-5.6842,-5.6859,-5.6916,-5.6902,-5.6913,-5.7044,-5.6909,-5.6897,-5.692,-5.6905,-5.6897,-5.689,-5.6844,-5.6945,-5.6958,-5.7042,-5.6871,-5.7201,-5.7213,-5.7224,-5.7379,-5.7406,-5.7429,0,0,0,0,0,-5.6837,-5.6962,-5.692,-5.6934,-5.6984,-5.705,-5.7055,-5.7001,-5.6928,-5.6985,-5.6962,-5.689,-5.7026,-5.6956,-5.697,-5.7057,-5.7195,-5.721,-5.7223,-5.7368,-5.7401,-5.7429,0,0,0,0,0,0,-5.6987,-5.6959,-5.6912,-5.7037,-5.7047,-5.7026,-5.7096,-5.7037,-5.7068,-5.7052,-5.6982,-5.6982,-5.709,-5.7083,-5.7005,-5.7202,-5.7098,-5.7115,-5.7203,-5.7234,-5.7258,-5.7257,-5.6876,0,0,0,0,0,-5.7035,-5.7091,-5.7063,-5.7176,-5.7183,-5.714,-5.7166,-5.7123,-5.713,-5.7133,-5.7118,-5.7127,-5.7172,-5.7203,-5.7242,-5.7378,-5.7373,-5.7445,-5.747,-5.749,-5.7506,-5.7576,-5.7607,-5.7276,-5.7276,-5.7276,0,0,-5.7133,-5.7125,-5.7165,-5.7206,-5.7208,-5.7267,-5.7144,-5.7212,-5.7254,-5.7143,-5.7234,-5.7224,-5.7229,-5.7346,-5.7397,-5.7344,-5.7596,-5.7508,-5.7525,-5.7529,-5.7594,-5.7625,-5.7653,-5.7286,-5.7284,-5.7282,0,0,-5.7343,-5.7343,-5.7436,-5.7442,-5.7448,-5.7418,-5.7441,-5.7429,-5.7418,-5.7508,-5.7426,-5.7475,-5.7554,-5.7561,-5.7575,-5.7788,-5.7722,-5.7803,-5.7934,-5.8003,-5.8029,-5.8052,-5.8126,-5.8154,-5.7819,-5.7819,-5.782,0,-5.7464,-5.7551,-5.7492,-5.7565,-5.7585,-5.7488,-5.7581,-5.7589,-5.7608,-5.7623,-5.7564,-5.766,-5.7657,-5.7774,-5.7826,-5.7841,-5.7864,-5.7803,-5.803,-5.8052,-5.8073,-5.8143,-5.8172,-5.7829,-5.7828,-5.7827,-5.7826,0,-5.7699,-5.7761,-5.7835,-5.7856,-5.7884,-5.7968,-5.792,-5.7956,-5.7911,-5.7887,-5.798,-5.7973,-5.8009,-5.8033,-5.799,-5.8144,-5.8111,-5.8043,-5.7935,-5.8115,-5.818,-5.8206,-5.7843,-5.7839,-5.7836,-5.7834,0,0,-5.8003,-5.799,-5.8018,-5.8026,-5.8026,-5.8072,-5.815,-5.8186,-5.8218,-5.8234,-5.8297,-5.8366,-5.8302,-5.8319,-5.8275,-5.8336,-5.8504,-5.8259,-5.8258,-5.8304,-5.8672,-5.8723,-5.8755,-5.8461,-5.8466,-5.847,-5.8671,0,-5.8205,-5.8339,-5.8288,-5.8425,-5.848,-5.839,-5.8458,-5.8465,-5.8445,-5.8488,-5.8466,-5.8515,-5.8428,-5.8437,-5.8494,-5.8472,-5.8577,-5.8457,-5.8518,-5.8521,-5.8518,-5.879,-5.8843,-5.9034,-5.8697,-5.8701,-5.8704,0,-5.846,-5.8487,-5.863,-5.862,-5.8641,-5.8703,-5.8731,-5.8775,-5.878,-5.8761,-5.878,-5.8723,-5.8798,-5.8694,-5.8796,-5.8715,-5.8737,-5.8731,-5.8737,-5.8739,-5.8622,-5.8798,-5.9093,-5.9121,-5.8744,-5.8741,-5.8738,0,-5.8665,-5.8737,-5.8832,-5.8842,-5.8833,-5.8878,-5.8877,-5.8877,-5.8901,-5.8926,-5.8941,-5.8975,-5.8993,-5.902,-5.8973,-5.8901,-5.9081,-5.8973,-5.9066,-5.9068,-5.9107,-5.9105,-5.9409,-5.9125,-5.9124,-5.9124,-5.9123,0,-5.8896,-5.8986,-5.8924,-5.8982,-5.908,-5.9021,-5.912,-5.9108,-5.9109,-5.9162,-5.9087,-5.9138,-5.9074,-5.912,-5.9084,-5.9173,-5.9182,-5.9168,-5.9157,-5.9174,-5.9176,-5.9186,-5.9171,-5.9131,-5.913,-5.9128,-5.9127,0,-5.914,-5.9102,-5.9199,-5.9183,-5.9181,-5.9255,-5.924,-5.9292,-5.9268,-5.9336,-5.9349,-5.931,-5.9359,-5.9316,-5.9364,-5.9339,-5.9458,-5.9429,-5.9456,-5.9447,-5.9543,-5.9534,-5.9863,-5.9902,-5.9595,-5.9598,-5.9601,0,-5.9289,-5.9357,-5.9349,-5.9379,-5.9382,-5.9433,-5.9458,-5.9402,-5.9431,-5.9443,-5.9494,-5.9537,-5.9568,-5.9652,-5.9627,-5.9663,-5.9633,-5.9746,-5.9638,-5.9652,-5.9633,-5.9629,-5.9635,-5.9767,-5.9771,-5.9774,-5.9776,0,-5.9558,-5.9535,-5.9575,-5.9608,-5.964,-5.9663,-5.968,-5.9709,-5.9652,-5.9688,-5.9738,-5.9763,-5.9812,-5.9855,-5.9883,-5.988,-5.9819,-5.9811,-5.9834,-5.9851,-5.9864,-5.9857,-5.9514,-5.9803,-5.98,-5.9798,-5.9797,-5.9796,-5.9757,-5.9813,-5.9816,-5.9862,-5.9869,-5.9887,-5.9935,-5.9917,-5.9958,-5.9993,-5.9958,-6.0019,-6.0022,-6.0054,-6.0058,-6.0104,-6.0057,-6.0091,-6.0099,-6.0108,-6.0121,-5.9858,-6.0109,-6.0108,-6.0108,-6.0107,-6.0106,0,-6.002,-6.0018,-6.0061,-6.0087,-6.0124,-6.0064,-6.008,-6.0114,-6.0168,-6.0177,-6.021,-6.0267,-6.0309,-6.0288,-6.0325,-6.0365,-6.0338,-6.0377,-6.0372,-6.0372,-6.0162,-6.0138,-6.0398,-6.0398,-6.0398,-6.0398,-6.0398,-6.0398,-6.0161,-6.0251,-6.023,-6.0323,-6.0319,-6.0378,-6.0392,-6.0408,-6.0415,-6.0482,-6.0517,-6.0504,-6.0501,-6.0536,-6.0572,-6.0564,-6.058,-6.0629,-6.0612,-6.0416,-6.0387,-6.036,-6.0336,-6.0634,-6.0634,-6.0817,-6.0819,-6.082]},{"header":{"parameterUnit":"m.s-1","parameterCategory":1,"la1":30.2991,"la2":30.254,"lo1":-89.0895,"lo2":-89.0444,"dy":0.0017,"dx":0.0017,"nx":28,"ny":28,"refTime":"2023-09-28T21:00:00:Z","depth":0,"parameterNumber":3,"parameterNumberName":"V-component_of_WINDS"},"data":[0,0,0,0,0,0,0,0,0,0,0,0,0,0,0,0,0,0,0,0,0,0,0,0,0,0,0,0,0,0,0,0,0,0,0,0,0,0,0,0,0,0,0,0,0,0,0,0,0,0,0,0,0,0,0,0,0,0,-1.0612,-1.0613,0,-1.0732,-1.0733,-1.0734,-1.0765,-1.0765,-1.0764,-1.0763,-1.0885,-1.0889,-1.0892,0,0,0,0,0,0,0,0,0,0,0,0,0,-1.0409,-1.0412,-1.0612,-1.0614,-1.0615,-1.0732,-1.0733,-1.0735,-1.0765,-1.0765,-1.0764,-1.0763,-1.0883,-1.0888,-1.0893,0,0,0,0,0,0,0,0,0,0,0,0,0,-1.0509,-1.0413,-1.0612,-1.0644,-1.0649,-1.0731,-1.0733,-1.0735,-1.0766,-1.0765,-1.0763,-1.0762,-1.0882,-1.0888,-1.0893,-1.0952,0,0,-1.0911,-1.0914,0,0,0,0,0,0,0,0,-1.0504,-1.0517,-1.0638,-1.0642,-1.0647,-1.0733,-1.0706,-1.0808,-1.0766,-1.0721,-1.0763,-1.0762,-1.0835,-1.0845,-1.0869,-1.0957,-1.0963,-1.0912,-1.0915,-1.0918,-1.092,0,0,0,0,0,0,0,-1.0497,-1.0512,-1.0659,-1.064,-1.0645,-1.0653,-1.0666,-1.0725,-1.0783,-1.0725,-1.0728,-1.0741,-1.0837,-1.0864,-1.0872,-1.0964,-1.0912,-1.0917,-1.0921,-1.0923,-1.1107,-1.1108,0,0,0,0,0,0,-1.0484,-1.0506,-1.0656,-1.0663,-1.0571,-1.0657,-1.0672,-1.0706,-1.0782,-1.0793,-1.0742,-1.0742,-1.0854,-1.0866,-1.0877,-1.0951,-1.0918,-1.0923,-1.0927,-1.1105,-1.1107,-1.1108,0,0,0,0,0,0,-1.048,-1.0497,-1.0651,-1.0585,-1.0605,-1.0662,-1.07,-1.0709,-1.0736,-1.0795,-1.0805,-1.0759,-1.0854,-1.0869,-1.0933,-1.0955,-1.0926,-1.0931,-1.1104,-1.1106,-1.1108,-1.1099,0,0,0,0,0,0,-1.0474,-1.0496,-1.0519,-1.0585,-1.0609,-1.0705,-1.0702,-1.0712,-1.0746,-1.0747,-1.0814,-1.0823,-1.0854,-1.0924,-1.0939,-1.0963,-1.0936,-1.1102,-1.1105,-1.1107,-1.1097,-1.11,-1.1102,0,0,0,0,0,-1.0466,-1.0511,-1.052,-1.0538,-1.0639,-1.0707,-1.072,-1.0754,-1.0748,-1.0771,-1.0809,-1.0821,-1.095,-1.093,-1.0947,-1.0974,-1.1101,-1.1104,-1.1107,-1.1096,-1.1099,-1.1102,0,0,0,0,0,0,-1.0445,-1.0521,-1.0531,-1.0599,-1.0646,-1.0712,-1.0743,-1.0757,-1.0807,-1.0806,-1.0846,-1.0861,-1.0923,-1.0955,-1.0931,-1.1034,-1.1025,-1.1032,-1.1011,-1.1015,-1.1018,-1.1009,-1.0941,0,0,0,0,0,-1.0448,-1.0498,-1.056,-1.0614,-1.0637,-1.0686,-1.0716,-1.0739,-1.079,-1.081,-1.0852,-1.0901,-1.0952,-1.0985,-1.1036,-1.1101,-1.1116,-1.1128,-1.113,-1.1132,-1.1138,-1.1175,-1.1181,-1.1118,-1.1118,-1.1118,0,0,-1.0456,-1.0503,-1.0531,-1.0611,-1.065,-1.07,-1.0702,-1.0755,-1.0792,-1.0818,-1.0882,-1.0914,-1.0971,-1.1036,-1.1067,-1.1064,-1.1158,-1.1136,-1.1137,-1.1142,-1.1179,-1.1185,-1.119,-1.112,-1.112,-1.112,0,0,-1.0494,-1.0535,-1.0584,-1.0624,-1.0683,-1.0715,-1.0727,-1.079,-1.0813,-1.0878,-1.0898,-1.0942,-1.103,-1.107,-1.1101,-1.1154,-1.1167,-1.1169,-1.1184,-1.122,-1.1224,-1.1229,-1.1249,-1.1255,-1.1174,-1.1174,-1.1174,0,-1.0496,-1.0572,-1.0608,-1.066,-1.0694,-1.0719,-1.0769,-1.0805,-1.0878,-1.0901,-1.0897,-1.1008,-1.1047,-1.1123,-1.1135,-1.116,-1.1175,-1.1163,-1.1221,-1.1226,-1.1231,-1.125,-1.1257,-1.1174,-1.1174,-1.1174,-1.1174,0,-1.0571,-1.0623,-1.0656,-1.0726,-1.0764,-1.0815,-1.0858,-1.0892,-1.091,-1.0942,-1.1007,-1.1056,-1.1117,-1.1136,-1.1155,-1.1214,-1.121,-1.1213,-1.1205,-1.1236,-1.1255,-1.1262,-1.1174,-1.1174,-1.1174,-1.1174,0,0,-1.0601,-1.069,-1.0702,-1.0734,-1.0801,-1.0842,-1.0893,-1.0953,-1.0982,-1.103,-1.1075,-1.1148,-1.1151,-1.1186,-1.121,-1.1241,-1.128,-1.124,-1.1242,-1.1246,-1.1349,-1.1347,-1.1355,-1.1289,-1.129,-1.1292,-1.1344,0,-1.0649,-1.0743,-1.0776,-1.0853,-1.0902,-1.0926,-1.097,-1.1016,-1.1047,-1.1093,-1.1126,-1.1178,-1.1178,-1.1199,-1.1231,-1.1269,-1.1302,-1.1265,-1.1331,-1.1333,-1.1317,-1.1365,-1.1364,-1.1411,-1.1352,-1.1353,-1.1354,0,-1.0718,-1.0768,-1.085,-1.0911,-1.0933,-1.0973,-1.103,-1.1073,-1.1125,-1.1146,-1.1185,-1.1206,-1.126,-1.1248,-1.1324,-1.1298,-1.1327,-1.1349,-1.1352,-1.136,-1.1346,-1.1375,-1.1427,-1.1435,-1.1366,-1.1365,-1.1364,0,-1.0732,-1.0821,-1.0881,-1.0908,-1.098,-1.1008,-1.1039,-1.109,-1.1124,-1.1174,-1.1196,-1.1251,-1.1282,-1.1324,-1.1359,-1.1347,-1.1431,-1.1422,-1.145,-1.1449,-1.1468,-1.1466,-1.1526,-1.1484,-1.1484,-1.1484,-1.1484,0,-1.0783,-1.0833,-1.0889,-1.0926,-1.0982,-1.1019,-1.1073,-1.1106,-1.1151,-1.1195,-1.1218,-1.1259,-1.1302,-1.1348,-1.1376,-1.1434,-1.1447,-1.1465,-1.1472,-1.1464,-1.1462,-1.1484,-1.1482,-1.1486,-1.1485,-1.1485,-1.1485,0,-1.081,-1.0849,-1.0917,-1.098,-1.0997,-1.1035,-1.1089,-1.1126,-1.1157,-1.1213,-1.1228,-1.1277,-1.1332,-1.1371,-1.1442,-1.1461,-1.1524,-1.153,-1.1507,-1.1511,-1.1536,-1.1534,-1.1613,-1.1626,-1.1574,-1.1575,-1.1575,0,-1.084,-1.0879,-1.0946,-1.0977,-1.1009,-1.1058,-1.1093,-1.1131,-1.1166,-1.1228,-1.1257,-1.1314,-1.1362,-1.1449,-1.1491,-1.1545,-1.1554,-1.1578,-1.1562,-1.1553,-1.1555,-1.1553,-1.1557,-1.158,-1.1581,-1.1581,-1.1581,0,-1.089,-1.0908,-1.0957,-1.1013,-1.1054,-1.11,-1.1146,-1.117,-1.1215,-1.1253,-1.131,-1.1347,-1.142,-1.1476,-1.1535,-1.1566,-1.1582,-1.1586,-1.1595,-1.1588,-1.1573,-1.1582,-1.1514,-1.1584,-1.1584,-1.1584,-1.1583,-1.1583,-1.092,-1.0956,-1.1009,-1.1063,-1.1101,-1.1144,-1.1182,-1.1218,-1.1266,-1.1328,-1.1347,-1.1406,-1.1457,-1.1537,-1.157,-1.1617,-1.1615,-1.1629,-1.1632,-1.1635,-1.1635,-1.1564,-1.1627,-1.1627,-1.1627,-1.1627,-1.1627,0,-1.0972,-1.1007,-1.1057,-1.1121,-1.1163,-1.1173,-1.1224,-1.1259,-1.1311,-1.1357,-1.1404,-1.1469,-1.1524,-1.157,-1.1626,-1.1655,-1.1663,-1.1668,-1.1667,-1.1674,-1.1633,-1.162,-1.1661,-1.1661,-1.1661,-1.1661,-1.1661,-1.1661,-1.1004,-1.1065,-1.1089,-1.1169,-1.1203,-1.1262,-1.129,-1.133,-1.1367,-1.1439,-1.1484,-1.1514,-1.156,-1.162,-1.167,-1.1683,-1.1703,-1.1706,-1.172,-1.1681,-1.1677,-1.1674,-1.1661,-1.171,-1.171,-1.1758,-1.1758,-1.1759]}]]